Location: Bondilly
(46.7049°N, 0.4730°E)
Time: 11:14:18
(UTC+00:00)

Daily predictions for brighter satellites

Satellite Brightness Start Highest point End
(mag) Time Altitude Azimuth Time Altitude Azimuth Time Altitude Azimuth
SAR-Lupe-2 3.7 18:40:50 10° SSE 18:44:20 56° ENE 18:47:51 10° N
Meteor PRIRODA 3.7 18:45:59 10° SE 18:49:07 42° ENE 18:52:16 10° N
Landsat 7 4.4 18:44:38 10° S 18:49:17 64° W 18:53:59 10° NNW
Cosmos 1842 3.8 18:49:08 10° N 18:52:28 33° ENE 18:55:46 10° SE
Cosmos 1536 3.9 18:50:41 10° SE 18:53:37 21° E 18:56:34 10° NE
USA 59 Rocket 0.1 18:49:53 10° NW 18:53:42 72° NE 18:58:59 10° SE
Cosmos 2061 Rocket 4.2 18:48:15 10° S 18:54:42 84° W 19:01:11 10° N
COSMOS 2428 2.7 18:49:16 10° SSW 18:54:54 67° ESE 19:00:35 10° NNE
Cosmos 1707 3.4 18:53:05 10° N 18:56:16 30° ENE 18:59:25 10° SE
Cosmos 1818 4.0 18:54:38 10° SW 19:00:04 68° NW 19:05:34 10° NNE
Okean O Rocket 3.0 18:57:42 10° ESE 19:00:55 21° ENE 19:04:14 10° NNE
Cosmos 2278 Rocket 2.3 19:01:14 10° NNW 19:06:51 58° ENE 19:12:25 10° SE
USA 306 2.7 19:04:02 10° WSW 19:07:01 58° NNW 19:10:34 10° NE
CZ-4B DEB 4.2 19:03:06 10° SSE 19:08:36 74° ENE 19:14:06 10° NNW
CZ-4 R/B 1.3 19:05:53 10° SSE 19:09:38 58° ENE 19:13:28 10° N
CZ-4B R/B 3.5 19:07:57 10° SE 19:13:09 47° ENE 19:18:18 10° N
Cosmos 1766 Rocket 3.5 19:09:14 10° S 19:13:34 79° E 19:17:58 10° NNE
NOSS 2-1 (C) 3.7 19:10:13 10° NW 19:14:02 77° SW 19:19:20 10° SSE
Resurs 01 Rocket 1.9 19:10:57 10° SE 19:15:12 47° ENE 19:19:27 10° N
TSX-5 4.4 19:13:02 10° NW 19:16:01 41° WSW 19:19:09 10° S
Meteor 2-17 Rocket 4.4 19:10:30 10° N 19:16:31 64° ENE 19:22:31 10° SSE
Helios 1A 2.8 19:13:14 10° NNE 19:17:18 72° ESE 19:21:21 10° S
USA 290 2.2 19:14:02 10° NNW 19:17:20 73° ENE 19:20:16 12° SSE
YAOGAN 1 4.3 19:13:44 10° SSW 19:17:39 34° W 19:21:36 10° NNW
ADEOS 3.7 19:12:34 10° S 19:17:47 78° WSW 19:23:02 10° NNW
GEOS 3 Rocket 3.6 19:13:40 11° SE 19:18:40 77° NE 19:23:52 10° NW
USA 186 2.0 19:17:45 13° SSE 19:20:28 49° ENE 19:23:37 10° N
CZ-4B R/B 3.6 19:15:55 10° S 19:20:38 70° WSW 19:25:28 10° NNW
Cosmos 1814 Rocket 4.0 19:15:57 10° SSW 19:21:15 88° WNW 19:26:32 10° NNE
PAYLOAD B 4.2 19:16:09 10° SSE 19:21:43 74° ENE 19:27:20 10° NNW
Cosmos 1743 4.2 19:18:50 10° SW 19:22:10 37° WNW 19:25:32 10° N
KORONAS-FOTON 3.6 19:19:41 10° N 19:23:24 87° E 19:27:04 10° S
SPOT 5 4.1 19:22:14 17° E 19:23:55 20° ENE 19:27:12 10° NNE
Okean-O 4.0 19:23:05 18° E 19:24:41 21° ENE 19:28:02 10° NNE
Cosmos 1408 Rocket 4.2 19:23:48 10° SSE 19:27:44 34° E 19:31:43 10° NNE
USA 267 4.4 19:22:14 10° ENE 19:28:04 36° N 19:33:55 10° WNW
ISS -3.7 19:25:29 10° SW 19:28:47 57° SSE 19:30:43 22° ENE
SPOT 1/Viking Rocket 4.0 19:23:49 10° S 19:28:57 65° WSW 19:34:06 10° NNW
NOSS 3-3 (A) 4.3 19:24:24 10° S 19:29:06 33° ESE 19:34:26 10° NE
CZ-4B R/B 2.8 19:25:51 10° SSE 19:29:41 86° WSW 19:33:45 10° NNW
SL-08 R/B 3.9 19:29:00 10° N 19:33:53 64° WNW 19:38:44 10° SSW
Cosmos 2237 Rocket 2.2 19:28:28 10° S 19:33:56 55° ESE 19:39:25 10° NE
Aureole 3 Rocket 4.3 19:30:27 10° SSE 19:36:42 37° E 19:41:21 10° NNE
CSL-04 Rocket 3.6 19:31:44 11° SSE 19:36:54 66° ENE 19:42:10 10° N
Cosmos 2219 Rocket 4.1 19:33:49 10° WSW 19:38:50 31° NW 19:43:52 10° NNE
Cosmos 1674 4.2 19:38:04 10° NNW 19:41:05 32° W 19:44:04 10° SSW
Meteor 1-14 Rocket 4.3 19:37:10 10° SSW 19:42:42 77° WNW 19:48:17 10° N
Cosmos 1356 Rocket 3.5 19:39:13 10° NNW 19:43:24 77° W 19:47:33 10° S
Aureole 1 4.3 19:41:19 10° NNW 19:44:28 84° WSW 19:46:29 24° SSE
Lacrosse 4 Rocket 3.9 19:41:51 10° WNW 19:45:02 20° WSW 19:48:10 10° SSW
SJ-6B 4.3 19:42:06 10° SSW 19:45:25 34° W 19:48:44 10° NNW
Meteor 1-11 Rocket 3.7 19:40:12 10° S 19:45:43 61° E 19:51:12 10° NNE
Meteor 1-4 Rocket 3.7 19:43:58 10° NNW 19:46:21 30° W 19:48:44 10° SSW
CARTOSAT-1 3.6 19:46:05 11° S 19:50:11 76° WSW 19:54:27 10° NNW
Cosmos 158 Rocket 3.8 19:46:08 10° S 19:50:54 57° ESE 19:55:41 10° NNE
ATLAS CENTAUR R/B 0.9 19:47:28 10° SSW 19:50:56 60° ESE 19:54:36 10° NE
Cosmos 1805 Rocket 3.9 19:52:47 34° SE 19:53:49 41° E 19:57:54 10° NNE
Cosmos 1733 3.0 19:54:41 10° SSW 19:58:07 75° W 20:01:34 10° N
Cosmos 1428 Rocket 4.4 19:52:34 10° N 19:58:38 62° ENE 20:02:18 24° SSE
USA 276 2.3 19:58:07 10° WNW 20:00:38 49° SW 20:00:38 49° SW
In-Cosmos 22 4.2 19:55:36 10° NNW 20:01:20 85° W 20:06:00 15° S
Cosmos 1980 3.7 19:57:46 10° SSW 20:03:27 84° WNW 20:09:11 10° NNE
Cosmos 2369 Rocket 3.4 19:58:52 10° N 20:03:38 26° NE 20:05:11 23° ENE
SWARM A 4.4 20:03:48 27° S 20:05:35 78° W 20:09:06 10° N
Sich 1 2.9 20:07:33 39° SSE 20:08:58 64° E 20:13:14 10° NNE
BlueWalker 3 4.1 20:08:15 10° W 20:10:49 18° SW 20:12:13 15° SSW
Cosmos 1943 Rocket 2.3 20:05:28 10° NNW 20:10:58 71° WSW 20:14:05 26° S
NOSS 0 Rocket 4.5 20:05:54 10° SW 20:12:04 61° WNW 20:18:15 10° NNE
Terra 2.7 20:13:52 31° ENE 20:13:52 31° ENE 20:17:58 10° N
ACS3 Solar Sail 1.9 20:09:36 19° SSE 20:14:22 89° ENE 20:20:49 10° NNW
ERS-1 Rocket 3.5 20:14:03 37° E 20:14:35 38° ENE 20:19:13 10° N
Cosmos 2298 Rocket 4.0 20:09:32 10° NNW 20:14:51 69° ENE 20:16:27 44° SE
Nadezhda 4 Rocket 4.2 20:09:44 10° NNW 20:16:00 75° W 20:21:40 13° S
Cosmos 1570 Rocket 4.1 20:10:52 10° SSW 20:16:10 78° WNW 20:21:27 10° NNE
Cosmos 2195 Rocket 4.3 20:10:02 10° N 20:16:10 74° E 20:19:12 32° SSE
Cosmos 2150 Rocket 3.9 20:11:23 10° NNW 20:16:33 71° ENE 20:17:56 47° SE
Cosmos 1975 4.1 20:18:58 26° NE 20:18:58 26° NE 20:20:58 10° NNE
USA 32 3.9 20:12:07 10° N 20:17:23 75° E 20:19:24 38° SSE
Cosmos 1805 3.1 20:21:37 71° NNE 20:21:37 71° NNE 20:24:56 10° N
Cosmos 1315 Rocket 3.1 20:19:30 10° NNW 20:23:26 62° W 20:24:27 44° SSW
Cosmos 2026 Rocket 3.9 20:17:16 10° N 20:23:31 71° E 20:25:52 39° SSE
Cosmos 1092 Rocket 4.0 20:17:40 10° N 20:24:00 70° E 20:26:28 39° SSE
Ariane Rocket 4.0 20:24:21 29° ENE 20:24:21 29° ENE 20:28:33 10° N
Cosmos 836 Rocket 4.4 20:21:22 10° SSW 20:26:39 87° ESE 20:31:59 10° NNE
Meteor 2-12 Rocket 4.5 20:21:11 10° N 20:27:18 62° ENE 20:28:56 46° SE
IRS-1A Rocket 4.4 20:26:28 47° ESE 20:27:46 58° ENE 20:33:21 10° N
Cosmos 1125 Rocket 4.4 20:28:00 10° NNW 20:32:57 45° WSW 20:35:39 24° SSW
SL-16 R/B 2.5 20:35:16 46° ENE 20:35:16 46° ENE 20:39:49 10° NE
Okean O Rocket 2.5 20:35:02 29° SSW 20:36:52 46° W 20:41:09 10° NNW
Cosmos 1634 Rocket 3.9 20:36:32 44° SSE 20:38:31 68° E 20:44:49 10° NNE
USA 306 4.2 20:37:11 10° WNW 20:40:09 26° N 20:40:35 26° N
Cosmos 1656 Rocket 3.7 20:35:14 10° NNW 20:40:50 57° ENE 20:41:19 55° E
SL-14 R/B 3.6 20:37:18 10° NNW 20:40:36 60° NW 20:40:36 60° NW
USA 59 Rocket 2.7 20:40:18 10° W 20:43:08 16° WSW 20:46:30 10° SSW
CZ-4 R/B 4.3 20:42:56 10° WSW 20:44:33 12° W 20:46:09 10° WNW
IRS-1C Rocket 3.9 20:45:02 69° E 20:45:21 72° ENE 20:50:37 10° N
Cosmos 773 Rocket 3.8 20:45:39 59° S 20:46:41 84° ESE 20:52:01 10° NNE
Cosmos 2278 Rocket 4.1 20:46:02 10° NW 20:50:30 24° WSW 20:54:31 12° SSW
Resurs 01 Rocket 4.1 20:48:41 10° SW 20:51:51 19° W 20:55:03 10° NW
Cosmos 2228 Rocket 3.5 20:51:37 10° N 20:55:20 57° N 20:55:20 57° N
Cosmos 1743 Rocket 4.3 20:56:20 44° WSW 20:57:03 49° WNW 21:01:17 10° N
MetOp-B 4.3 20:56:15 54° SSW 20:57:16 66° WSW 21:02:37 10° NNW
SPOT 3 Rocket 4.0 21:00:55 50° NE 21:00:55 50° NE 21:05:10 10° N
Okean-O 3.4 21:00:31 44° WSW 21:00:46 45° W 21:05:01 10° NNW
SPOT 5 3.3 21:01:22 49° WSW 21:01:38 50° W 21:06:00 10° NNW
NOSS 3-3 (C) 4.1 20:59:56 10° SW 21:05:19 64° NW 21:11:44 10° NE
ISS -1.1 21:02:28 10° W 21:03:42 20° WNW 21:03:42 20° WNW
USA 267 3.8 21:08:22 38° ENE 21:10:16 48° NNE 21:16:29 10° NW
Cosmos 2237 Rocket 4.1 21:13:30 10° WSW 21:18:18 28° NW 21:23:09 10° N
Cosmos 2279 Rocket 3.8 21:20:00 88° SW 21:20:04 89° W 21:26:20 10° N
Cosmos 1607 4.1 21:17:09 10° SW 21:23:37 76° NW 21:30:05 10° NE
MOS 1 Rocket 4.4 21:24:48 42° WSW 21:25:02 43° W 21:30:03 10° NNW
ATLAS CENTAUR R/B 3.8 21:26:03 10° W 21:28:42 19° NW 21:29:51 16° NNW
Cosmos 2297 4.0 21:24:02 10° NNW 21:28:59 64° WNW 21:28:59 64° WNW
Spot 2 Rocket 4.1 21:31:06 53° NW 21:31:06 53° NW 21:35:06 10° NNW
NOSS 3-4 (A) 3.8 21:37:45 10° NW 21:44:36 76° WSW 21:44:36 76° WSW
NOSS 3-4 (C) 3.8 21:37:51 10° NW 21:44:42 76° WSW 21:44:42 76° WSW
Cosmos 2369 Rocket 2.9 21:42:27 10° NNW 21:46:58 52° WNW 21:46:58 52° WNW
Terra 3.5 21:52:34 29° WNW 21:52:34 29° WNW 21:55:39 10° NNW
ACS3 Solar Sail 4.2 21:55:19 10° WSW 21:59:14 17° W 22:03:11 10° NW
SL-16 R/B 3.8 22:17:00 26° W 22:18:42 30° NW 22:23:41 10° N
ATLAS 2AS CENTAUR R/B 4.1 22:29:49 10° NNW 22:35:43 29° NNE 22:36:31 28° NE
USA 267 4.2 22:55:43 39° WNW 22:55:43 39° WNW 22:59:37 10° NW
Cosmos 2344 4.0 23:19:44 10° NW 23:27:14 76° N 23:27:14 76° N
Cosmos 1980 Rocket 4.2 23:49:37 10° NNW 23:52:14 23° N 23:52:14 23° N
